Regional Weather Roundup
Issued by NWS

Home | Current Version | Previous Version | Graphics & Text | Print | Product List | Glossary On
Versions: 1 2 3 4 5 6 7 8 9 10 11 12 13 14 15 16 17 18 19 20 21 22 23 24 25 26 27 28 29 30 31 32 33 34 35 36 37 38 39 40 41 42 43 44 45 46 47 48 49 50
000
ASUS43 KLMK 251302
RWRKY
KENTUCKY REGIONAL WEATHER ROUNDUP
NATIONAL WEATHER SERVICE LOUISVILLE KY
900 AM EDT MON JUL 25 2016

NOTE "FAIR" INDICATES FEW OR NO CLOUDS BELOW 12,000 FEET
WITH NO SIGNIFICANT WEATHER AND/OR OBSTRUCTIONS TO VISIBILITY.

KYZ001>023-026-027-061>063-070>075-251400-
WESTERN AND SOUTH CENTRAL KENTUCKY

CITY           SKY/WX    TMP DP  RH WIND       PRES   REMARKS
PADUCAH        PTSUNNY   81  76  84 CALM      30.00R
HENDERSON      MOSUNNY   81  73  78 CALM      29.98S
OWENSBORO      MOSUNNY   82  79  91 S6        30.00R HX  92
HOPKINSVILLE   SUNNY     82  74  77 S3        30.02F
BOWLING GREEN  CLOUDY    82  75  79 S7        30.04S
GLASGOW        NOT AVBL
$$

KYZ024-025-028>034-038-045-046-053-251400-
NORTH CENTRAL KENTUCKY

CITY           SKY/WX    TMP DP  RH WIND       PRES   REMARKS
LOUISVILLE/SDF CLOUDY    84  75  74 SE6       30.00S HX  92
LOUISVILLE/LOU MOSUNNY   84  75  74 S5        30.00F HX  92
FORT KNOX      CLOUDY    82  76  82 S6        30.00F
$$

KYZ035>037-039>044-047>052-055>060-089>105-251400-
NORTHEAST KENTUCKY

CITY           SKY/WX    TMP DP  RH WIND       PRES   REMARKS
LEXINGTON      MOSUNNY   81  75  82 S6        30.05F
COVINGTON      PTSUNNY   80  77  90 SW8       30.01S
FRANKFORT      CLOUDY    82  75  79 S9        30.02F
$$

KYZ054-064>069-076>088-106>120-251400-
SOUTHEAST KENTUCKY

CITY           SKY/WX    TMP DP  RH WIND       PRES   REMARKS
JACKSON        CLOUDY    78  74  87 CALM      30.10R
LONDON         MOSUNNY   78  71  79 SW5       30.09S
SOMERSET       MOSUNNY   75  73  94 S3        30.09S
MIDDLESBORO    MOSUNNY   76  74  92 CALM      30.12S
MONTICELLO     SUNNY    N/A N/A N/A MISG      30.10R
$$




USA.gov is the U.S. government's official web portal to all federal, state and local government web resources and services.